sat.trackr.live / text

‹ back to catalog

STARLINK-4526

NORAD 53438 · 2022-097BC

PAYLOAD ACTIVE UNKNOWN

§ Identity

Operator
Country
US
Launch date
2022-08-10
Launch site
AFETR
Launch vehicle
Mass (kg)
RCS (m²)

Purposes: comms

External: N2YO · Heavens-Above · Gunter

§ Orbital elements

Epoch: 2026-05-25T05:29:30.365088Z

Period
95.44 min
Inclination
53.2140°
Eccentricity
0.0001259
Mean motion
15.08849591 rev/d
Perigee alt
538.8 km
Apogee alt
540.6 km
Semi-major
6,917.9 km
B*
-6.6776e-5
RAAN
120.1652°
Arg perigee
73.9894°
Mean anomaly
286.1237°
Rev number
21,035

§ Raw data

STARLINK-45261 53438U 22097BC  26145.22882367 -.00001351  00000+0 -66776-4 0  99962 53438  53.2140 120.1652 0001259  73.9894 286.1237 15.08849591210354

JSON: /api/v1/satellites/53438 · /tle

For live sub-satellite position, see the globe view (requires WebGL).

§ Visibility from observer

Set your observer location to see the next 7 days of passes ≥ 10°. The values pass through the URL so the page stays shareable.

No JS? Fill the form by hand. The geolocation button needs JavaScript.